Starlink 4078

operational
NORAD ID: 52689 Int'l Des: 2022-053 Owner: SPXS Country: US Constellation: starlink
LEOCIRCULAR

Starlink 4078について

説明を読み込み中...

リアルタイム位置

3D地球を読み込み中...

次回通過

高度履歴

Altitude vs Time

uPlot chart will show altitude changes over time

軌道要素

1 52689U 22053AK 25260.08294679 .00029206 00000-0 88889-3 0 9995
2 52689 53.2174 184.4620 0003917 89.8914 270.2538 15.33794567185212
Epoch: Sep 17, 2025 • Age: 15 hours

現在のステータス

高度 481.1 km
速度 7.62 km/s
衛星直下点 -43.06°S, 152.16°E
打ち上げ日 May 18, 2022
運用期間 3.3 years
タイプ internet

技術仕様

分類 Payload
質量 297.00 kg
乾燥質量 275.00 kg
総質量 297.00 kg
長さ 0.20 m
直径 2.80 m
スパン 9.00 m
形状 Box + pan
製造者 SPXS
バスタイプ Starlink
フェーズステータス In Orbit
所有者/国 SPXS/US

大規模コンステレーション

Loading constellations...